ARIANE 44LP DEB, 25543

Orbit data source: Space-Track

ARIANE 44LP DEB, 25543 is space debris in HEO originally from a launch on Sun, 11 Dec 1988 UTC launched from the French Guiana (FRGUI). Debris objects in space refer to the collection of defunct objects orbiting the Earth. Examples of debris include non-operational satellites, rocket bodies, and fragments generated from explosions, collisions, or faulty payload assembly.

Loading next visibility...
Identifier
25543, 1988-109K
Orbit
HEO
Last TLE update
20 hours ago
Origin
Manufacturer
Unknown
Mission
Spacecraft
Bus & Motor
Unknown
Mass
Unknown
Launch date (UTC)
1988-12-11 (37 years ago)
Launch vehicle
Unknown
Launch site
French Guiana (FRGUI)
Object type
Payload
Rocket body
Debris
Shape & HBR
Unknown
Radar Cross Section
9.500 m², Large (>1 m²)

Expand to show TLE details & history

TLE from 20 hours ago
0 ARIANE 44LP DEB
1 25543U 88109K   25183.75012579  .00000143  00000-0  10094-2 0  9994
2 25543   7.2300   4.4335 7171238 161.3388 252.5194  2.30459376228617
Epoch: 2025-07-02T18:00Z
TLE epoch observation values (Epoch: 2025-07-02T18:00:10.868Z)
Latitude
Longitude
173.32485°
Altitude
30,290.541 km
Speed
2.297 km/s
True Right ascension
00h 17m 35s
True Declination
0° 00' 00"
Sunlit
Object was in daylight at epoch
Visualization orbit readout
Latitude
-1.24683°
Longitude
163.16173°
Altitude
34,146.624 km
Speed
1.791 km/s
Apparent Right ascension
23h 22m 21s
Apparent Declination
-7° 46' 30"
Sunlit
Object is in daylight
Visualization observer readout
Local Sidereal Time
01:29:14
Azimuth
218.949° SW
Elevation
34.027°
Doppler factor
1
Orbital elements
Apogee altitude
35,203.499 km
Perigee altitude
471.954 km
Semi-major axis
24,215.863 km
Eccentricity
0.71712
Inclination
7.23°
RAAN
4.4335°
Arg. of periapsis
161.3388°
True anomaly
Unknown
Mean anomaly
252.5194°
Eccentric anomaly
Unknown
Mean motion
0.57596 °/min
Orbital period
625.04 mins
BSTAR
0.0010094
Loading maneuver chart data...
Loading SW <> Apogee altitude chart data...
Loading historical data...
Loading historical data...
Loading historical data...
Loading historical data...
Loading historical data...
Loading historical data...
Loading historical data...

ARIANE 44LP DEB Visibility forecast

Observer location: undefined°, undefined°

Span
Click to sort rows by Start time (UTC) header in descending order
Start Az.
Max El. time (UTC)
Max El. Az.
Max El.
End time (UTC)
End Az.
237 mins2025-07-03 13:42:22.673Z218.937° SW2025-07-03 13:42:22.673Z218.937° SW29.223°2025-07-03 17:39:22.673Z151.194° SSE
534 mins2025-07-04 04:48:22.673Z170.355° S2025-07-04 12:29:22.673Z164.185° S33.714°2025-07-04 13:42:22.673Z151.554° SSE
|